Location: San Gennaro Vesuviano
(40.8833°N, 14.5333°E)
Time: 22:09:27
(UTC+00:00)

Genesis I - Pass Details

Date: 22 April 2021
Orbit: 483 x 537 km, 64.5° (Epoch: 10 May)

Event Time Altitude Azimuth Distance (km) Brightness Sun altitude
Rises 19:10:21 0° 335° (NNW) 2,674 7.8 -14.8°
Reaches altitude 10° 19:12:42 10° 344° (NNW) 1,787 6.6 -15.2°
Maximum altitude 19:16:22 33° 50° (NE) 906 4.2 -15.8°
Enters shadow 19:17:43 26° 89° (E) 1,069 4.3 -16.0°
